Location: Washington
(38.8950°N, 77.0370°W)
Time: 12:19:16
(UTC-05:00)

Daily predictions for brighter satellites

Satellite Brightness Start Highest point End
(mag) Time Altitude Azimuth Time Altitude Azimuth Time Altitude Azimuth
Meteor 1-25 Rocket 4.3 18:12:31 10° S 18:18:06 84° E 18:23:50 10° N
Okean 1 3.6 18:16:19 10° N 18:20:16 47° E 18:24:11 10° SSE
Cosmos 1633 3.6 18:17:14 10° SSE 18:20:19 26° E 18:23:27 10° NNE
Cosmos 1812 2.7 18:17:12 10° N 18:21:05 79° E 18:24:55 10° S
Cosmos 1536 Rocket 3.9 18:18:42 10° N 18:22:59 43° E 18:27:14 10° SSE
Cosmos 1818 3.6 18:19:00 10° SSW 18:24:27 89° ESE 18:29:57 10° NNE
Cosmos 407 Rocket 3.6 18:20:39 10° SSW 18:25:54 86° WNW 18:31:14 10° NNE
Cosmos 2360 Rocket 2.7 18:22:56 10° N 18:28:14 39° ENE 18:33:29 10° SE
Cosmos 2219 4.3 18:24:21 10° SSE 18:28:39 22° E 18:32:57 10° NE
ASTRO F (AKARI) 4.4 18:25:21 10° NNE 18:28:54 73° ESE 18:32:14 10° S
Cosmos 2219 Rocket 4.0 18:27:30 10° NNE 18:29:16 11° NE 18:31:03 10° ENE
Cosmos 676 Rocket 4.0 18:25:18 10° S 18:30:27 72° ESE 18:35:40 10° NNE
DNEPR-1 R/B 3.7 18:28:00 10° NW 18:32:14 77° WSW 18:36:32 10° SSE
Meteor 1-11 Rocket 4.1 18:32:39 10° SSE 18:38:05 44° E 18:43:38 10° NNE
Nadezhda 1 Rocket 4.3 18:33:00 10° NNW 18:39:02 71° W 18:45:04 10° S
Cosmos 1461 3.5 18:40:59 10° NW 18:44:56 57° WSW 18:48:59 10° SSE
Cosmos 1140 Rocket 3.5 18:40:32 10° S 18:45:33 58° ESE 18:50:37 10° NNE
DELTA 2 R/B (1) 3.7 18:39:58 10° W 18:45:36 78° SSW 18:50:43 13° ESE
Cosmos 1602 3.7 18:44:52 10° S 18:48:39 59° E 18:52:30 10° NNE
Resurs 01 Rocket 2.3 18:45:01 10° SE 18:48:54 32° ENE 18:52:50 10° N
Cosmos 1300 Rocket 3.6 18:45:50 10° S 18:50:10 59° E 18:54:32 10° NNE
Cosmos 2292 Rocket 4.4 18:48:05 10° S 18:53:07 83° W 18:59:59 10° N
Cosmos 614 Rocket 4.1 18:48:32 10° S 18:53:26 51° ESE 18:58:21 10° NNE
Cosmos 1833 4.2 18:49:46 10° SSW 18:55:29 89° WNW 19:01:11 10° NNE
Abrixas rocket 3.3 18:52:42 10° SSW 18:55:37 28° SE 18:56:51 22° ESE
COSMO-SKYMED 1 4.4 18:52:06 10° N 18:56:01 34° WNW 18:59:56 10° SW
ALOS 2.4 18:52:17 10° SSE 18:56:49 53° ENE 19:01:23 10° N
Cosmos 2181 Rocket 4.0 18:52:49 10° N 18:59:05 72° E 19:05:25 10° SSE
Spot 2 Rocket 3.8 18:56:28 10° SE 19:01:14 45° ENE 19:06:03 10° N
USA 229 DEB 4.5 18:56:28 10° NNW 19:02:52 34° NE 19:07:02 20° E
Cosmos 2333 Rocket 3.7 18:59:24 10° N 19:03:10 18° NE 19:04:11 17° ENE
FREGAT/IRIS 3.0 19:01:29 10° S 19:04:32 68° W 19:07:37 10° NNW
SL-16 R/B 3.7 18:59:39 10° NW 19:04:53 39° WSW 19:10:06 10° S
Helios 1A 4.0 19:04:17 23° E 19:05:01 24° ENE 19:08:24 10° NNE
Cosmos 2208 Rocket 4.5 19:00:16 10° N 19:05:25 41° ENE 19:09:51 13° SE
NOSS 8 (E) 4.4 19:02:29 10° SSW 19:05:56 89° ESE 19:09:17 12° NNE
Resurs 1-3 4.0 19:02:38 10° SE 19:06:45 41° ENE 19:10:53 10° N
Cosmos 1340 2.9 19:03:40 10° NNW 19:07:27 71° W 19:11:12 10° S
Cosmos 1709 Rocket 4.4 19:06:20 10° SSW 19:12:31 68° W 19:18:41 10° N
Cosmos 2074 Rocket 4.1 19:06:38 10° SSE 19:12:36 51° E 19:18:39 10° NNE
Cosmos 1850 Rocket 4.0 19:07:26 10° S 19:12:40 66° ESE 19:17:57 10° NNE
Cosmos 2184 Rocket 4.1 19:09:29 10° SSE 19:15:34 52° E 19:21:37 10° NNE
Envisat 4.3 19:18:30 21° NE 19:18:30 21° NE 19:21:32 10° NNE
FengYun 1-2 T 4.1 19:13:24 10° SSE 19:18:52 84° ENE 19:24:24 10° NNW
Helios 1B rocket 3.0 19:18:13 32° ENE 19:18:52 34° E 19:22:40 10° SSE
NOSS 8 (H) 4.3 19:16:38 10° SSW 19:20:01 89° ESE 19:21:51 26° NNE
Intercosmos 24 4.4 19:16:23 10° SSE 19:20:21 53° E 19:25:56 10° NNE
Cosmos 2322 Rocket 4.4 19:16:30 10° NW 19:21:10 27° WSW 19:25:49 10° SSW
HJ-1C 3.5 19:18:18 10° S 19:21:40 74° WSW 19:25:03 10° NNW
Okean 2 4.4 19:19:09 10° NNE 19:22:00 29° NE 19:22:00 29° NE
SJ-6B 3.9 19:19:09 10° S 19:23:01 46° W 19:26:51 10° NNW
Okean 1 Rocket 3.3 19:20:29 10° SSW 19:24:57 75° W 19:29:28 10° N
Tiangong 2 3.1 19:22:46 10° W 19:25:14 22° SSW 19:26:32 17° S
Meteor 1-5 Rocket 4.3 19:19:54 10° S 19:25:44 58° E 19:31:32 10° NNE
FENGYUN 3A 3.7 19:21:18 10° S 19:26:43 81° WSW 19:32:10 10° NNW
Genesis I 3.2 19:23:34 10° NNW 19:27:28 57° NE 19:28:05 50° E
SAR-Lupe-4 3.6 19:30:27 53° ENE 19:30:27 53° ENE 19:33:44 10° N
Hubble Space Telescope 3.1 19:30:08 10° S 19:31:23 12° SSE 19:31:23 12° SSE
Gbstr 26 Del rocket 3.4 19:31:55 10° WSW 19:35:36 47° NNW 19:36:52 33° NNE
Nadezhda 3 Rocket 4.5 19:30:59 10° N 19:36:33 35° ENE 19:36:37 35° ENE
Cosmos 2322 4.1 19:32:07 10° NNW 19:37:46 64° WSW 19:43:22 10° S
Cosmos 1238 Rocket 4.4 19:35:52 10° NNW 19:38:24 26° W 19:40:56 10° SSW
CZ-2D R/B 3.1 19:43:32 57° S 19:44:16 88° W 19:48:06 10° NNW
Cosmos 2154 Rocket 4.2 19:38:34 10° SSE 19:44:33 46° E 19:50:33 10° NNE
GEOS 3 Rocket 4.1 19:39:57 10° NNE 19:45:06 61° NW 19:50:18 10° SW
Cosmos 2285 Rocket 4.0 19:38:52 10° NNW 19:45:15 61° ENE 19:47:50 36° SE
Cosmos 1025 Rocket 3.0 19:41:48 10° N 19:46:12 88° W 19:48:42 25° S
GPS 2-04 Rocket1 3.4 19:42:29 10° WSW 19:46:29 44° S 19:46:29 44° S
H-2A R/B 3.4 19:46:26 13° S 19:49:34 53° W 19:53:14 10° NNW
Meteor 2-13 Rocket 4.3 19:44:27 10° S 19:50:26 66° E 19:56:28 10° NNE
Cosmos 1536 4.1 19:46:54 10° SSW 19:50:41 41° W 19:54:29 10° N
Okean 1-7 Rocket 4.3 19:47:57 10° NNW 19:52:22 55° W 19:56:44 10° S
Meteor 1-23 Rocket 4.4 19:47:20 10° NNW 19:53:08 76° W 19:58:51 10° S
COSMOS 2428 2.6 19:47:28 10° NNW 19:53:11 89° ENE 19:55:38 36° SSE
Cosmos 2237 4.4 19:47:43 10° NNW 19:53:25 72° WSW 19:57:28 20° S
Cosmos 2333 4.1 19:48:48 10° NNW 19:54:34 80° ENE 19:56:21 46° SSE
Meteor 2-4 Rocket 4.2 19:50:01 10° NNW 19:55:25 57° W 20:00:41 10° S
Cosmos 2237 Rocket 3.3 19:52:08 10° N 19:55:53 29° NNE 19:55:53 29° NNE
NOSS 0 Rocket 4.0 20:02:48 10° NNW 20:08:24 55° NE 20:08:24 55° NE
Cosmos 2360 Rocket 4.1 20:07:17 10° NW 20:11:59 27° WSW 20:16:41 10° SSW
Cosmos 2219 4.1 20:06:50 10° SW 20:12:23 49° WNW 20:17:58 10° NNE
Cosmos 2219 Rocket 2.2 20:08:36 10° NNW 20:13:36 67° NNE 20:13:36 67° NNE
Cosmos 2227 Rocket 4.4 20:13:01 10° S 20:13:25 12° S 20:13:25 12° S
Resurs 01 Rocket 4.0 20:22:04 10° SW 20:25:25 21° W 20:28:46 10° NW
SL-16 R/B 4.2 20:25:55 10° N 20:27:20 16° N 20:27:20 16° N
ATLAS CENTAUR R/B 4.5 20:30:09 10° SW 20:30:46 13° WSW 20:30:46 13° WSW
BREEZE-M DEB (TANK) 4.2 20:30:21 10° WNW 20:34:31 85° SW 20:35:01 78° SSE
Cosmos 2333 Rocket 3.1 20:42:17 10° NNW 20:46:14 45° NW 20:46:14 45° NW
USA 229 DEB 4.2 20:47:10 10° NW 20:54:07 55° WSW 20:54:33 54° SW
USA 229 4.2 20:47:16 10° NW 20:54:13 56° WSW 20:54:36 55° SW
